Location: Gleizolles
(44.4833°N, 6.7667°E)
Time: 21:13:51
(UTC+00:00)

Tiros 1 despin weight - Pass Details

Date: 02 July 2024
Orbit: 576 x 620 km, 48.2° (Epoch: 19 July)

Event Time Altitude Azimuth Distance (km) Brightness Sun altitude
Rises 11:17:11 0° 284° (WNW) 2,884 ? 68.1°
Reaches altitude 10° 11:19:32 10° 289° (WNW) 1,982 ? 68.2°
Maximum altitude 11:24:02 57° 8° (N) 736 ? 68.3°
Drops below altitude 10° 11:28:32 10° 87° (E) 1,986 ? 68.4°
Sets 11:30:53 0° 92° (E) 2,890 ? 68.5°
